This is the latest recevied weather packets stored in our database for station/object I5EKX-13. If no packets are shown the sender has not sent any weather packets the latest 10 day(s).
| Time | Temp. | Humidity | Pressure | Rain* | Wind** | Luminosity | Snow |
|---|---|---|---|---|---|---|---|
| 1777656907 | 18.89° C | 35% | 1017.9 hPa | - | - | - | - |
| 1777655703 | 19.44° C | 33% | 1017.7 hPa | - | - | - | - |
| 1777654499 | 20.56° C | 32% | 1017.7 hPa | - | - | - | - |
| 1777653296 | 20.56° C | 32% | 1017.6 hPa | - | - | - | - |
| 1777652092 | 21.11° C | 32% | 1017.6 hPa | - | - | - | - |
| 1777650888 | 21.67° C | 32% | 1017.6 hPa | - | - | - | - |
| 1777649684 | 21.67° C | 33% | 1017.7 hPa | - | - | - | - |
| 1777648481 | 22.22° C | 34% | 1017.6 hPa | - | - | - | - |
| 1777647277 | 22.78° C | 32% | 1017.7 hPa | - | - | - | - |
| 1777646079 | 22.22° C | 41% | 1017.9 hPa | - | - | - | - |
| 1777644869 | 22.78° C | 38% | 1018 hPa | - | - | - | - |
| 1777643665 | 23.89° C | 30% | 1018.1 hPa | - | - | - | - |
| 1777642462 | 24.44° C | 30% | 1018.2 hPa | - | - | - | - |
| 1777641258 | 25° C | 29% | 1018.3 hPa | - | - | - | - |
| 1777640054 | 25.56° C | 30% | 1018.4 hPa | - | - | - | - |
| 1777638850 | 23.89° C | 31% | 1018.6 hPa | - | - | - | - |
| 1777637646 | 23.33° C | 31% | 1018.7 hPa | - | - | - | - |
| 1777636443 | 22.78° C | 32% | 1018.9 hPa | - | - | - | - |
| 1777635239 | 22.22° C | 32% | 1019.1 hPa | - | - | - | - |
| 1777634035 | 22.22° C | 33% | 1019.1 hPa | - | - | - | - |
| 1777632832 | 23.89° C | 32% | 1019.2 hPa | - | - | - | - |
| 1777631628 | 23.33° C | 33% | 1019.4 hPa | - | - | - | - |
| 1777630424 | 22.22° C | 35% | 1019.6 hPa | - | - | - | - |
| 1777629220 | 22.78° C | 35% | 1019.7 hPa | - | - | - | - |
| 1777628016 | 20° C | 37% | 1019.8 hPa | - | - | - | - |
* Rain since midnight (hover to see other rain measurements)
** Current wind speed in m/s (hover to see current wind gust speed)